Location: Unspecified
(54.1780°N, 0.0000°E)
Time: 11:09:23
(UTC+00:00)

Transit 2A - Pass Details

Date: 24 June 2019
Orbit: 595 x 964 km, 66.7° (Epoch: 22 July)

Event Time Altitude Azimuth Distance (km) Brightness Sun altitude
Rises 07:58:25 0° 318° (NW) 3,516 9.0 35.6°
Reaches altitude 10° 08:01:02 10° 317° (NW) 2,523 8.4 36.0°
Maximum altitude 08:06:51 78° 233° (SW) 829 6.7 36.9°
Drops below altitude 10° 08:12:03 10° 147° (SSE) 2,258 9.1 37.6°
Sets 08:14:17 0° 146° (SE) 3,121 9.7 37.9°
